sat.trackr.live / text

‹ back to catalog

STARLINK-34731

NORAD 65029 · 2025-161Q

PAYLOAD ACTIVE UNKNOWN

§ Identity

Operator
Country
US
Launch date
2025-07-30
Launch site
AFWTR
Launch vehicle
Mass (kg)
RCS (m²)

Purposes: comms

External: N2YO · Heavens-Above · Gunter

§ Orbital elements

Epoch: 2026-05-25T03:54:08.011008Z

Period
93.85 min
Inclination
53.1607°
Eccentricity
0.0001384
Mean motion
15.34400763 rev/d
Perigee alt
461.8 km
Apogee alt
463.6 km
Semi-major
6,840.8 km
B*
8.6473e-4
RAAN
298.6031°
Arg perigee
116.5895°
Mean anomaly
243.5250°
Rev number
4,704

§ Raw data

STARLINK-347311 65029U 25161Q   26145.16259272  .00028954  00000+0  86473-3 0  99972 65029  53.1607 298.6031 0001384 116.5895 243.5250 15.34400763 47045

JSON: /api/v1/satellites/65029 · /tle

For live sub-satellite position, see the globe view (requires WebGL).

§ Visibility from observer

Set your observer location to see the next 7 days of passes ≥ 10°. The values pass through the URL so the page stays shareable.

No JS? Fill the form by hand. The geolocation button needs JavaScript.